Flag for Germany Weather past 2 weeks in Hannover, Lower Saxony, Germany

Now
55 °F

Clear.


Feels Like: 53 °F
Forecast: 46 / 56 °F
Wind: 8 mph from Southwest

Location: Hannover

Current Time: Oct 21, 2014 at 12:54:10 AM

Latest Report: Oct 21, 2014 at 12:20 AM


Visibility: 10 mi

Pressure: 29.86 "Hg

Humidity: 88%

Dew point: 52 °F

Location of HannoverLocation

Historic Weather in Hannover — Graph

°F

Hannover temperature yesterday

Maximum temperature yesterday: 61 °F (at 12:20 PM)
Minimum temperature yesterday: 55 °F (at 1:50 PM)
Average temperature yesterday: 57 °F

Past Weeks' High & Low Weather Summary

 TemperatureHumidityPressure
High73 °F (Oct 19, 4:20 PM)100% (Oct 6, 6:20 AM)30.15 "Hg (Oct 6, 6:20 AM)
Low46 °F (Oct 6, 3:50 AM)52% (Oct 14, 2:20 PM)29.53 "Hg (Oct 7, 2:20 PM)
Average58 °F85%29.84 "Hg
* Reported Oct 5 11:20 PM — Oct 20 11:20 PM, Hannover, Weather by CustomWeather, © 2014

Note: Actual official high and low records may vary slightly from our data, if they occured in-between our weather recording intervals... More about our weather records

Advertising

Hannover weather history for previous 24 hours

 ConditionsComfort  
Time TempWeatherWind HumidityBarometerVisibility
11:20 PM
Oct 20
55 °FLight rain. Passing clouds.7 mph88%29.89 "HgN/A
10:50 PM55 °FLight rain. Passing clouds.7 mph88%29.89 "HgN/A
10:20 PM55 °FPartly cloudy.9 mph88%29.89 "HgN/A
9:50 PM55 °FPassing clouds.7 mph94%29.89 "HgN/A
9:20 PM55 °FPartly cloudy.7 mph88%29.89 "HgN/A
8:50 PM57 °FPassing clouds.9 mph82%29.89 "HgN/A
8:20 PM55 °FPartly cloudy.7 mph94%29.89 "HgN/A
7:50 PM57 °FSprinkles. Partly cloudy.7 mph88%29.89 "HgN/A
7:20 PM57 °FPartly cloudy.7 mph88%29.89 "HgN/A
6:50 PM57 °FBroken clouds.9 mph82%29.89 "HgN/A
6:20 PM57 °FBroken clouds.6 mph88%29.89 "HgN/A
5:50 PM57 °FBroken clouds.7 mph88%29.92 "HgN/A
5:20 PM57 °FBroken clouds.7 mph88%29.92 "HgN/A
4:50 PM57 °FPartly sunny.7 mph88%29.92 "HgN/A
4:20 PM57 °FBroken clouds.12 mph88%29.92 "HgN/A
3:50 PM57 °FPartly sunny.13 mph88%29.92 "HgN/A
3:20 PM57 °FBroken clouds.10 mph94%29.92 "HgN/A
2:50 PM57 °FScattered clouds.9 mph94%29.92 "HgN/A
2:20 PM55 °FRain showers. Partly sunny.10 mph94%29.95 "Hg3 mi
1:50 PM55 °FRain showers. Broken clouds.13 mph100%29.95 "Hg2 mi
1:20 PM57 °FSprinkles. Broken clouds.12 mph88%29.95 "Hg5 mi
12:50 PM59 °FSprinkles. Partly sunny.16 mph82%29.92 "HgN/A
12:20 PM61 °FScattered showers. Broken clouds.15 mph77%29.92 "HgN/A
11:50 AM59 °FPartly sunny.15 mph82%29.92 "HgN/A
11:20 AM59 °FPartly sunny.15 mph82%29.92 "HgN/A
10:50 AM59 °FBroken clouds.15 mph82%29.92 "HgN/A
10:20 AM59 °FBroken clouds.14 mph82%29.92 "HgN/A
9:50 AM57 °FBroken clouds.13 mph82%29.92 "HgN/A
9:20 AM57 °FBroken clouds.16 mph82%29.92 "HgN/A
8:50 AM57 °FPassing clouds.14 mph82%29.92 "HgN/A
8:20 AM57 °FPartly cloudy.12 mph82%29.92 "HgN/A
7:50 AM57 °FPartly cloudy.16 mph82%29.89 "HgN/A
7:20 AM57 °FPartly cloudy.17 mph82%29.89 "HgN/A
6:50 AM57 °FPassing clouds.15 mph82%29.89 "HgN/A
5:20 AM57 °FPassing clouds.14 mph82%29.92 "HgN/A
4:50 AM57 °FPassing clouds.13 mph82%29.92 "HgN/A
4:20 AM57 °FPassing clouds.10 mph88%29.92 "HgN/A
3:50 AM57 °FPassing clouds.12 mph88%29.92 "HgN/A
3:20 AM57 °FPassing clouds.12 mph88%29.92 "HgN/A
2:50 AM57 °FPassing clouds.12 mph88%29.92 "HgN/A
2:20 AM59 °FPassing clouds.9 mph82%29.92 "HgN/A
1:50 AM59 °FPassing clouds.12 mph82%29.92 "HgN/A
1:20 AM59 °FPassing clouds.13 mph88%29.92 "HgN/A
12:50 AM59 °FPassing clouds.9 mph88%29.92 "HgN/A
12:20 AM59 °FPassing clouds.9 mph88%29.92 "HgN/A
Weather by CustomWeather, © 2014

See weather overviewHow to use our weather pages